Home > Weather > Paradise > Past weeks

Flag for USA Past Weather in Paradise, California, USA — Yesterday and Last 2 Weeks

Now
73 °F

Passing clouds.


Feels Like: 77 °F
Forecast: 60 / 84 °F
Wind: 7 mph from Southeast

Location: Chico Municipal

Current Time: Aug 28, 2016 at 12:17:07 AM

Latest Report: Aug 27, 2016 at 11:35 PM


Visibility: 10 mi

Pressure: 29.97 "Hg (28.20 "Hg at 527m altitude)

Humidity: 44%

Dew Point: 50 °F

Location of ParadiseLocation

Past Weather in Paradise — Graph

°F

Paradise Temperature Yesterday

Maximum temperature yesterday: 86 °F (at 5:55 PM)
Minimum temperature yesterday: 59 °F (at 6:53 AM)
Average temperature yesterday: 73 °F

High & Low Weather Summary for the Past Weeks

 TemperatureHumidityPressure
High102 °F (Aug 14, 4:48 PM)82% (Aug 27, 6:53 AM)30.07 "Hg (Aug 27, 6:53 AM)
Low59 °F (Aug 27, 6:53 AM)12% (Aug 14, 4:48 PM)29.72 "Hg (Aug 17, 5:55 PM)
Average80 °F39%29.87 "Hg
* Reported Aug 12 11:15 PM — Aug 27 11:15 PM, Paradise, Weather by CustomWeather, © 2016

Note: Actual official high and low records may vary slightly from our data, if they occured in-between our weather recording intervals... More about our weather records

Advertising

Paradise Weather History for the Previous 24 Hours

Scroll right to see more
 ConditionsComfort  
Time TempWeatherWind HumidityBarometerVisibility
11:15 PM
Sat, Aug 27
73 °FPassing clouds.9 mph47%29.96 "Hg10 mi
10:55 PM75 °FClear.8 mph47%29.96 "Hg10 mi
10:35 PM75 °FClear.8 mph47%29.95 "Hg10 mi
10:15 PM77 °FClear.8 mph44%29.94 "Hg10 mi
9:55 PM77 °FClear.9 mph44%29.94 "Hg10 mi
9:35 PM77 °FClear.10 mph42%29.93 "Hg10 mi
9:15 PM81 °FClear.9 mph34%29.93 "Hg10 mi
8:55 PM81 °FClear.8 mph34%29.92 "Hg10 mi
8:35 PM81 °FSunny.8 mph34%29.91 "Hg10 mi
8:15 PM81 °FSunny.7 mph37%29.91 "Hg10 mi
7:55 PM82 °FSunny.10 mph35%29.90 "Hg10 mi
7:35 PM82 °FSunny.9 mph30%29.90 "Hg10 mi
7:15 PM84 °FSunny.9 mph35%29.89 "Hg10 mi
6:55 PM84 °FSunny.12 mph35%29.89 "Hg10 mi
6:35 PM84 °FSunny.9 mph35%29.89 "Hg10 mi
6:15 PM86 °FSunny.10 mph31%29.89 "Hg10 mi
5:55 PM86 °FSunny.13 mph31%29.89 "Hg10 mi
3:50 PM84 °FSunny.7 mph37%29.90 "Hg10 mi
2:45 PM84 °FSunny.12 mph37%29.92 "Hg25 mi
1:57 PM82 °FSunny.6 mph37%29.94 "Hg25 mi
12:49 PM79 °FSunny.7 mph42%29.95 "Hg25 mi
11:50 AM75 °FSunny.7 mph47%29.97 "Hg10 mi
10:50 AM72 °FSunny.6 mph53%29.98 "Hg25 mi
9:47 AM66 °FSunny.No wind64%29.99 "Hg25 mi
7:56 AM63 °FSunny.6 mph73%29.99 "Hg25 mi
6:53 AM59 °FClear.No wind82%29.98 "Hg25 mi
5:35 AM63 °FPassing clouds.6 mph73%29.96 "Hg10 mi
5:15 AM63 °FPassing clouds.5 mph73%29.96 "Hg10 mi
4:55 AM63 °FPassing clouds.5 mph73%29.95 "Hg10 mi
4:35 AM63 °FPassing clouds.5 mph77%29.95 "Hg10 mi
4:15 AM63 °FClear.6 mph77%29.95 "Hg10 mi
3:55 AM63 °FClear.6 mph77%29.94 "Hg10 mi
3:35 AM63 °FClear.5 mph77%29.94 "Hg10 mi
3:15 AM63 °FClear.6 mph77%29.94 "Hg10 mi
2:55 AM64 °FClear.7 mph73%29.93 "Hg10 mi
2:35 AM64 °FClear.6 mph73%29.93 "Hg10 mi
2:15 AM66 °FClear.7 mph68%29.93 "Hg10 mi
1:55 AM66 °FClear.5 mph68%29.93 "Hg10 mi
1:35 AM68 °FClear.6 mph64%29.92 "Hg10 mi
1:15 AM70 °FClear.3 mph57%29.91 "Hg10 mi
12:55 AM72 °FClear.3 mph53%29.91 "Hg10 mi
12:35 AM72 °FClear.6 mph47%29.91 "Hg10 mi
12:15 AM73 °FClear.8 mph44%29.90 "Hg10 mi
Weather by CustomWeather, © 2016

See weather overviewHow to use our weather pages